Weather History for PAIN - August, 2013

Change the Weather History Date:

Wednesday, August 21, 2013

  Actual Average Record
Temperature  
Mean Temperature 46 °F -  
Max Temperature 53 °F 56 °F 78 °F (1977)
Min Temperature 39 °F 37 °F 19 °F (1974)
Degree Days  
Heating Degree Days 19    
Moisture  
Dew Point 44 °F    
Average Humidity 89    
Maximum Humidity 100    
Minimum Humidity 72    
Precipitation  
Precipitation 0.00 in - - ()
Sea Level Pressure  
Sea Level Pressure 29.77 in    
Wind  
Wind Speed 1 mph (South)    
Max Wind Speed 6 mph    
Max Gust Speed -    
Visibility 10 miles    
Events      
Averages and records for this station are not official NWS values.
T = Trace of Precipitation, MM = Missing Value Source: NWS Daily Summary

Daily Weather History Graph

Daily Weather History Graph

Search for Another Location

Airport or City:

Trip Planner

Search our weather history database for the weather conditions in past years. The results will help you decide how hot, cold, wet, or windy it might be!

Date:

Astronomy

Aug. 21, 2013 Rise Set
Actual Time 6:08 AM AKDT 9:46 PM AKDT
Civil Twilight 5:10 AM AKDT 10:43 PM AKDT
Nautical Twilight 3:36 AM AKDT 12:14 AM AKDT
Astronomical Twilight Sun does not set Sun does not set
Moon 9:09 PM AKDT (8/21) 7:39 AM AKDT (8/21)
Length of Visible Light 17h 33m
Length of Day
15h 37m
Full, 99% of the Moon is Illuminated
Aug 21
Full
Aug 28
Last Quarter
Sep 5
New
Sep 12
First Quarter
Sep 19
Full

Hourly Weather History & Observations

Time (AKDT) Temp. Windchill Dew Point Humidity Pressure Visibility Wind Dir Wind Speed Gust Speed Precip Events Conditions
12:16 AM 46.4 °F - 46.4 °F 100% 29.80 in 10.0 mi Calm Calm - N/A   Overcast
12:36 AM 46.4 °F - 46.4 °F 100% 29.81 in 10.0 mi Calm Calm - N/A   Overcast
12:56 AM 44.6 °F 43.1 °F 44.6 °F 100% 29.81 in 10.0 mi SSW 3.5 mph - N/A   Overcast
1:16 AM 44.6 °F - 44.6 °F 100% 29.81 in 10.0 mi Calm Calm - N/A   Overcast
1:36 AM 44.6 °F 43.1 °F 44.6 °F 100% 29.81 in 10.0 mi SW 3.5 mph - N/A   Overcast
1:56 AM 44.6 °F - 44.6 °F 100% 29.81 in 10.0 mi Calm Calm - N/A   Overcast
2:16 AM 44.6 °F - 44.6 °F 100% 29.81 in 10.0 mi Calm Calm - N/A   Overcast
2:36 AM 42.8 °F - 42.8 °F 100% 29.81 in 10.0 mi Calm Calm - N/A   Overcast
2:56 AM 42.8 °F - 42.8 °F 100% 29.81 in 10.0 mi Calm Calm - N/A   Overcast
3:16 AM 42.8 °F - 42.8 °F 100% 29.82 in 10.0 mi Calm Calm - N/A   Overcast
3:36 AM 42.8 °F - 42.8 °F 100% 29.81 in 10.0 mi Calm Calm - N/A   Overcast
3:56 AM 42.8 °F - 42.8 °F 100% 29.81 in 10.0 mi Calm Calm - N/A   Overcast
4:16 AM 42.8 °F - 42.8 °F 100% 29.81 in 10.0 mi Calm Calm - N/A   Overcast
4:36 AM 42.8 °F - 41.0 °F 93% 29.81 in 10.0 mi Calm Calm - N/A   Overcast
4:56 AM 41.0 °F - 41.0 °F 100% 29.81 in 10.0 mi Calm Calm - N/A   Mostly Cloudy
5:16 AM 39.2 °F - 39.2 °F 100% 29.81 in 10.0 mi Calm Calm - N/A   Partly Cloudy
5:36 AM 39.2 °F - 39.2 °F 100% 29.81 in 10.0 mi Calm Calm - N/A   Partly Cloudy
5:56 AM 39.2 °F - 37.4 °F 93% 29.81 in 10.0 mi Calm Calm - N/A   Mostly Cloudy
6:16 AM 39.2 °F - 39.2 °F 100% 29.81 in 10.0 mi Calm Calm - N/A   Overcast
6:36 AM 39.2 °F - 39.2 °F 100% 29.81 in 10.0 mi Calm Calm - N/A   Overcast
6:56 AM 41.0 °F - 41.0 °F 100% 29.81 in 10.0 mi Calm Calm - N/A   Overcast
7:16 AM 41.0 °F - 39.2 °F 93% 29.81 in 10.0 mi Calm Calm - N/A   Overcast
7:36 AM 41.0 °F - 39.2 °F 93% 29.81 in 10.0 mi Calm Calm - N/A   Overcast
7:56 AM 41.0 °F - 41.0 °F 100% 29.80 in 10.0 mi Calm Calm - N/A   Overcast
8:16 AM 41.0 °F - 41.0 °F 100% 29.80 in 10.0 mi Calm Calm - N/A   Overcast
8:36 AM 42.8 °F - 42.8 °F 100% 29.80 in 10.0 mi Calm Calm - N/A   Mostly Cloudy
8:56 AM 44.6 °F - 44.6 °F 100% 29.80 in 10.0 mi Calm Calm - N/A   Mostly Cloudy
9:16 AM 44.6 °F - 44.6 °F 100% 29.80 in 10.0 mi Calm Calm - N/A   Overcast
9:36 AM 44.6 °F - 44.6 °F 100% 29.80 in 10.0 mi Calm Calm - N/A   Overcast
9:56 AM 46.4 °F - 44.6 °F 93% 29.79 in 10.0 mi Calm Calm - N/A   Overcast
10:16 AM 46.4 °F - 46.4 °F 100% 29.79 in 10.0 mi Calm Calm - N/A   Overcast
10:36 AM 48.2 °F - 44.6 °F 87% 29.78 in 10.0 mi Calm Calm - N/A   Overcast
10:56 AM 48.2 °F - 46.4 °F 93% 29.78 in 10.0 mi Calm Calm - N/A   Overcast
11:16 AM 48.2 °F - 46.4 °F 93% 29.78 in 10.0 mi Calm Calm - N/A   Overcast
11:36 AM 48.2 °F - 48.2 °F 100% 29.78 in 10.0 mi Calm Calm - N/A   Overcast
11:56 AM 48.2 °F - 46.4 °F 93% 29.77 in 10.0 mi SSW 3.5 mph - N/A   Overcast
12:16 PM 51.8 °F - 46.4 °F 82% 29.77 in 10.0 mi South 5.8 mph - N/A   Overcast
12:36 PM 51.8 °F - 46.4 °F 82% 29.77 in 10.0 mi South 5.8 mph - N/A   Overcast
12:56 PM 51.8 °F - 44.6 °F 76% 29.77 in 10.0 mi Calm Calm - N/A   Overcast
1:16 PM 51.8 °F - 44.6 °F 76% 29.77 in 10.0 mi South 3.5 mph - N/A   Overcast
1:36 PM 51.8 °F - 46.4 °F 82% 29.77 in 10.0 mi Calm Calm - N/A   Overcast
1:56 PM 51.8 °F - 46.4 °F 82% 29.76 in 10.0 mi Calm Calm - N/A   Overcast
2:16 PM 51.8 °F - 46.4 °F 82% 29.76 in 10.0 mi Calm Calm - N/A   Overcast
2:36 PM 51.8 °F - 46.4 °F 82% 29.76 in 10.0 mi SSW 3.5 mph - N/A   Overcast
2:56 PM 51.8 °F - 46.4 °F 82% 29.76 in 10.0 mi South 3.5 mph - N/A   Overcast
3:16 PM 53.6 °F - 44.6 °F 72% 29.75 in 10.0 mi SE 4.6 mph - N/A   Overcast
3:36 PM 53.6 °F - 44.6 °F 72% 29.75 in 10.0 mi SSE 4.6 mph - N/A   Overcast
3:56 PM 53.6 °F - 44.6 °F 72% 29.74 in 10.0 mi SSE 3.5 mph - N/A   Overcast
4:16 PM 53.6 °F - 46.4 °F 77% 29.74 in 10.0 mi Calm Calm - N/A   Overcast
4:36 PM 53.6 °F - 46.4 °F 77% 29.74 in 10.0 mi Calm Calm - N/A   Overcast
4:56 PM 53.6 °F - 44.6 °F 72% 29.74 in 10.0 mi SE 4.6 mph - N/A   Overcast
5:16 PM 53.6 °F - 44.6 °F 72% 29.73 in 10.0 mi Calm Calm - N/A   Overcast
5:36 PM 53.6 °F - 44.6 °F 72% 29.73 in 10.0 mi SSE 4.6 mph - N/A   Overcast
5:56 PM 53.6 °F - 44.6 °F 72% 29.73 in 10.0 mi SE 3.5 mph - N/A   Overcast
6:16 PM 53.6 °F - 44.6 °F 72% 29.73 in 10.0 mi Calm Calm - N/A   Overcast
6:36 PM 53.6 °F - 44.6 °F 72% 29.72 in 10.0 mi SSE 4.6 mph - N/A   Overcast
6:56 PM 53.6 °F - 46.4 °F 77% 29.72 in 10.0 mi Calm Calm - N/A   Overcast
7:16 PM 51.8 °F - 44.6 °F 76% 29.72 in 10.0 mi Calm Calm - N/A   Overcast
7:36 PM 51.8 °F - 46.4 °F 82% 29.72 in 10.0 mi SSE 3.5 mph - N/A   Overcast
7:56 PM 51.8 °F - 46.4 °F 82% 29.72 in 10.0 mi Calm Calm - N/A   Overcast
8:16 PM 51.8 °F - 46.4 °F 82% 29.72 in 10.0 mi Calm Calm - N/A   Overcast
8:36 PM 51.8 °F - 46.4 °F 82% 29.72 in 10.0 mi Calm Calm - N/A   Overcast
8:56 PM 51.8 °F - 46.4 °F 82% 29.72 in 10.0 mi Calm Calm - N/A   Overcast
9:16 PM 51.8 °F - 46.4 °F 82% 29.72 in 10.0 mi Calm Calm - N/A   Overcast
9:36 PM 50.0 °F - 46.4 °F 87% 29.72 in 10.0 mi Calm Calm - N/A   Overcast
9:56 PM 50.0 °F - 46.4 °F 87% 29.72 in 10.0 mi SSE 3.5 mph - N/A   Overcast
10:16 PM 50.0 °F - 46.4 °F 87% 29.72 in 10.0 mi Calm Calm - N/A   Overcast
10:36 PM 50.0 °F - 46.4 °F 87% 29.73 in 10.0 mi Calm Calm - N/A   Mostly Cloudy
10:56 PM 48.2 °F - 46.4 °F 93% 29.72 in 10.0 mi Calm Calm - N/A   Overcast
11:16 PM 48.2 °F - 46.4 °F 93% 29.72 in 10.0 mi Calm Calm - N/A   Overcast
11:36 PM 48.2 °F - 46.4 °F 93% 29.72 in 10.0 mi Calm Calm - N/A   Overcast
11:56 PM 48.2 °F - 46.4 °F 93% 29.72 in 10.0 mi Calm Calm - N/A   Overcast